Flight Track Log - Related Links

Times and Time Zones

All times are in EDT time to prevent confusion due to time zone crossing. See the N479SA flight status page for this flight to view local times or setup timezone preferences in your user account.

Time Position Orientation Groundspeed Altitude Reporting Facility
EDT Latitude Longitude Course Direction KTS MPH feet Rate Location/Type
Fri 10:09:57 AM 42.7722 -84.5367 136° Southeast 125 144 16,000  Level Chicago Center
Fri 10:10:59 AM 42.7483 -84.5056 136° Southeast 117 135 2,800 -315 Descending Chicago Center
Fri 10:18:50 AM 42.7025 -84.9411 262° West 143 165 13,200 1,261 Climbing Chicago Center
Fri 10:19:52 AM 42.6958 -84.9922 255° West 140 161 14,000 919 Climbing Chicago Center
Fri 10:20:54 AM 42.6897 -85.0436 261° West 138 159 15,100 774 Climbing Chicago Center
Fri 10:21:56 AM 42.6822 -85.0942 259° West 137 158 15,600 532 Climbing Chicago Center
Fri 10:22:58 AM 42.6744 -85.1597 261° West 146 168 16,200 581 Climbing Chicago Center
Fri 10:24:00 AM 42.6700 -85.2089 263° West 136 157 16,800 532 Climbing Chicago Center
Fri 10:25:02 AM 42.6622 -85.2603 258° West 138 159 17,300 532 Climbing Chicago Center
Fri 10:26:04 AM 42.6567 -85.3131 262° West 141 162 17,900 290 Climbing Chicago Center
Fri 10:27:06 AM 42.6494 -85.3700 260° West 149 171 17,900  Level Chicago Center
Fri 10:28:08 AM 42.6431 -85.4328 262° West 164 189 17,900  Level Chicago Center
Fri 10:29:10 AM 42.6336 -85.4969 259° West 172 198 17,900  Level Chicago Center
Fri 10:30:12 AM 42.6239 -85.5756 260° West 175 201 17,900  Level Chicago Center
Fri 10:31:14 AM 42.6158 -85.6419 261° West 177 204 17,900  Level Chicago Center
Fri 10:32:16 AM 42.6069 -85.7092 260° West 179 206 17,900  Level Chicago Center
Fri 10:33:18 AM 42.5986 -85.7742 260° West 177 204 17,900  Level Chicago Center
Fri 10:34:20 AM 42.5908 -85.8408 261° West 178 205 17,900  Level Chicago Center
Fri 10:35:22 AM 42.5831 -85.9069 261° West 178 205 17,900  Level Chicago Center
Fri 10:36:24 AM 42.5728 -85.9872 260° West 179 206 17,900  Level Chicago Center
Fri 10:37:26 AM 42.5647 -86.0539 261° West 179 206 17,900  Level Chicago Center
Fri 10:38:28 AM 42.5550 -86.1211 259° West 180 207 17,900  Level Chicago Center
Fri 10:39:30 AM 42.5461 -86.1906 260° West 185 213 17,900  Level Chicago Center
Fri 10:40:32 AM 42.5383 -86.2572 261° West 181 208 17,900 -484 Level Chicago Center
Fri 10:41:34 AM 42.5281 -86.3283 259° West 191 220 16,900 -878 Descending Chicago Center
Fri 10:42:35 AM 42.5178 -86.4111 260° West 218 251 16,100 -780 Descending Chicago Center
Fri 10:43:37 AM 42.5053 -86.5036 260° West 207 238 15,300 -1,161 Descending Chicago Center
Fri 10:44:39 AM 42.4936 -86.5875 259° West 222 255 13,700 -1,306 Descending Chicago Center
Fri 10:45:41 AM 42.4850 -86.6714 262° West 225 259 12,600 -1,258 Descending Chicago Center
Fri 10:46:43 AM 42.4739 -86.7519 259° West 219 252 11,100 -1,258 Descending Chicago Center
Fri 10:47:45 AM 42.4625 -86.8308 259° West 217 250 10,000 -1,113 Descending Chicago Center
Fri 10:48:47 AM 42.4550 -86.9050 262° West 205 236 8,800 -1,452 Descending Chicago Center
Fri 10:49:49 AM 42.4433 -86.9761 257° West 198 228 7,000 -1,790 Descending Chicago Center
Fri 10:50:51 AM 42.4306 -87.0667 259° West 202 232 5,100 -1,597 Descending Chicago Center
Fri 10:51:53 AM 42.4197 -87.1392 259° West 201 231 3,700 -1,065 Descending Chicago Center
Fri 10:52:55 AM 42.4092 -87.2178 260° West 198 228 2,900 -241 Descending Chicago Center
Fri 10:54:47 AM 42.3833 -87.3500 255° West 205 236 3,000 35 Climbing Chicago TRACON
Fri 10:55:47 AM 42.3667 -87.4333 255° West 211 243 3,000  Level Chicago TRACON
Fri 10:56:48 AM 42.3500 -87.5000 251° West 207 238 3,000  Level Chicago TRACON
Fri 10:57:54 AM 42.3333 -87.5833 255° West 207 238 3,000  Level Chicago TRACON
Fri 10:58:48 AM 42.3167 -87.6500 251° West 210 242 3,000 -182 Level Chicago TRACON
Fri 10:59:33 AM 42.3136 -87.7042 266° West 221 254 2,700 -280 Descending Chicago Center
Fri 11:00:35 AM 42.2972 -87.7817 254° West 215 247 2,500 -97 Descending Chicago Center
Fri 11:01:37 AM 42.2842 -87.8519 256° West 208 239 2,500  Level Chicago Center
Fri 11:02:39 AM 42.2706 -87.9258 256° West 191 220 2,500 49 Level Chicago Center
Fri 11:03:40 AM 42.2597 -87.9808 255° West 174 200 2,600 49 Climbing Chicago Center
Fri 11:04:42 AM 42.2494 -88.0331 255° West 161 185 2,600  Level Chicago Center
Fri 11:05:44 AM 42.2394 -88.0847 255° West 154 177 2,600  Level Chicago Center
Fri 11:06:46 AM 42.2278 -88.1447 255° West 147 169 2,600  Level Chicago Center
Fri 11:07:48 AM 42.2231 -88.1914 262° West 137 158 2,600 -195 Level Chicago Center
Fri 11:08:49 AM 42.2181 -88.2381 262° West 131 151 2,200 -195 Descending Chicago Center
Fri 11:09:51 AM 42.2125 -88.2833 261° West 130 150 2,200 -414 Level Chicago Center
Fri 11:11:43 AM 42.2000 -88.3500 256° West 108 124 1,000 -643 Descending Chicago TRACON

Login

Don't have an account? Register now (free) for customized features, flight alerts, and more!